[[{"header":{"parameterUnit":"m.s-1","parameterCategory":1,"la1":30.2991,"la2":30.254,"lo1":-89.0895,"lo2":-89.0444,"dy":0.0017,"dx":0.0017,"nx":28,"ny":28,"refTime":"2025-04-07T09:00:00:Z","depth":0,"parameterNumber":2,"parameterNumberName":"U-component_of_WINDS"},"data":[0,0,0,0,0,0,0,0,0,0,0,0,0,0,0,0,0,0,0,0,0,0,0,0,0,0,0,0,0,0,0,0,0,0,0,0,0,0,0,0,0,0,0,0,0,0,0,0,0,0,0,0,0,0,0,0,0,0,3.5747,3.5748,0,3.5793,3.5794,3.5794,3.5736,3.5734,3.5732,3.573,3.5771,3.5774,3.5777,0,0,0,0,0,0,0,0,0,0,0,0,0,3.5605,3.5608,3.5747,3.5748,3.5749,3.5793,3.5794,3.5795,3.5736,3.5734,3.5731,3.5729,3.577,3.5774,3.5777,0,0,0,0,0,0,0,0,0,0,0,0,0,3.566,3.5609,3.5747,3.5725,3.5723,3.5793,3.5794,3.5795,3.5737,3.5733,3.573,3.5727,3.5769,3.5773,3.5778,3.587,0,0,3.5792,3.5794,0,0,0,0,0,0,0,0,3.5657,3.5665,3.5728,3.5727,3.5725,3.5756,3.5759,3.582,3.5737,3.5731,3.5729,3.5726,3.5768,3.5773,3.5788,3.5872,3.5874,3.5792,3.5795,3.5797,3.5798,0,0,0,0,0,0,0,3.5653,3.5663,3.5765,3.5729,3.5727,3.5711,3.5716,3.577,3.5767,3.5732,3.5728,3.5734,3.5767,3.5784,3.5788,3.5874,3.5792,3.5796,3.5799,3.5801,3.6038,3.6042,0,0,0,0,0,0,3.5653,3.566,3.5764,3.5767,3.5683,3.5716,3.5721,3.5749,3.5766,3.5766,3.5737,3.5731,3.5777,3.5783,3.579,3.59,3.5797,3.5801,3.5804,3.6035,3.6039,3.6043,0,0,0,0,0,0,3.565,3.5663,3.5762,3.5713,3.5724,3.5722,3.5754,3.5752,3.5768,3.577,3.5769,3.5755,3.5775,3.5783,3.5851,3.5901,3.5803,3.5808,3.6031,3.6036,3.6041,3.6121,0,0,0,0,0,0,3.5646,3.5662,3.5698,3.5714,3.5727,3.5824,3.5757,3.5755,3.5777,3.577,3.5787,3.5786,3.5773,3.5845,3.5856,3.5905,3.5811,3.6026,3.6033,3.6039,3.6114,3.6129,3.6141,0,0,0,0,0,3.5641,3.5717,3.57,3.5713,3.5772,3.5827,3.5834,3.5819,3.5782,3.5817,3.5819,3.5786,3.5894,3.5852,3.5864,3.5916,3.6023,3.6031,3.6039,3.6108,3.6126,3.6141,0,0,0,0,0,0,3.5703,3.5718,3.57,3.5783,3.5805,3.5817,3.5861,3.5838,3.5869,3.5861,3.584,3.5844,3.5917,3.5923,3.5877,3.6007,3.5952,3.5963,3.6001,3.6017,3.6031,3.6028,3.5815,0,0,0,0,0,3.5727,3.5773,3.5782,3.5855,3.5867,3.5863,3.5886,3.5873,3.5894,3.5902,3.5908,3.5928,3.5967,3.5992,3.6027,3.6115,3.6118,3.6157,3.617,3.6181,3.6191,3.6239,3.6257,3.6069,3.6069,3.6069,0,0,3.5776,3.579,3.5819,3.5868,3.5883,3.593,3.5871,3.5921,3.5956,3.5909,3.5975,3.598,3.6001,3.608,3.6115,3.6087,3.6243,3.6191,3.62,3.6204,3.6249,3.6267,3.6283,3.6074,3.6073,3.6073,0,0,3.5889,3.5904,3.5967,3.5984,3.601,3.6007,3.6022,3.6039,3.6042,3.6108,3.6075,3.6114,3.6181,3.6198,3.6215,3.6338,3.631,3.635,3.642,3.6468,3.6483,3.6496,3.654,3.6557,3.636,3.636,3.636,0,3.5945,3.6016,3.6001,3.6057,3.6079,3.6042,3.6106,3.6123,3.6157,3.6173,3.6142,3.6227,3.6238,3.6321,3.6352,3.6367,3.6384,3.6348,3.6482,3.6495,3.6507,3.6549,3.6566,3.6365,3.6364,3.6364,3.6363,0,3.6085,3.6135,3.6182,3.6221,3.6248,3.6307,3.6301,3.6331,3.6316,3.6317,3.6385,3.6398,3.6436,3.6455,3.6439,3.6537,3.6519,3.6486,3.643,3.653,3.6569,3.6586,3.6372,3.637,3.6368,3.6367,0,0,3.6236,3.6268,3.6286,3.6304,3.633,3.6368,3.6425,3.6465,3.6492,3.6517,3.6565,3.6624,3.6594,3.6614,3.66,3.6642,3.6741,3.6603,3.6604,3.6629,3.685,3.6876,3.6895,3.6722,3.6725,3.6728,3.6849,0,3.635,3.6452,3.6442,3.6539,3.6585,3.6552,3.6602,3.6624,3.6626,3.6665,3.6666,3.6709,3.6666,3.6678,3.6718,3.672,3.6785,3.6711,3.6766,3.6768,3.6762,3.6915,3.6942,3.7055,3.6864,3.6867,3.6868,0,3.6496,3.6531,3.6633,3.6656,3.6675,3.672,3.6758,3.6795,3.6819,3.6818,3.6842,3.6822,3.6879,3.6823,3.6902,3.6852,3.6874,3.6879,3.6883,3.6887,3.6824,3.6924,3.7091,3.7108,3.6892,3.6891,3.6889,0,3.6598,3.667,3.6741,3.6757,3.6784,3.6818,3.683,3.6851,3.6877,3.6909,3.6925,3.6963,3.6983,3.7012,3.7003,3.6963,3.7084,3.7026,3.7084,3.7085,3.7111,3.711,3.7284,3.7125,3.7125,3.7124,3.7124,0,3.6726,3.679,3.6788,3.6831,3.6902,3.689,3.696,3.6968,3.6988,3.7032,3.7004,3.7046,3.7031,3.7072,3.7064,3.7132,3.714,3.7141,3.7138,3.7144,3.7144,3.7157,3.7149,3.7129,3.7128,3.7127,3.7126,0,3.6851,3.6852,3.6928,3.6949,3.6956,3.7007,3.7025,3.7066,3.7067,3.7123,3.7136,3.7137,3.7184,3.7178,3.7229,3.7224,3.7308,3.7296,3.7301,3.7299,3.7357,3.7352,3.7547,3.7572,3.7396,3.7398,3.7399,0,3.6933,3.6983,3.7011,3.704,3.7056,3.7102,3.713,3.712,3.7149,3.7182,3.7219,3.7264,3.7299,3.7375,3.738,3.7419,3.7408,3.7473,3.7413,3.7418,3.741,3.7407,3.7413,3.7485,3.7487,3.7489,3.749,0,3.708,3.7079,3.712,3.7163,3.7198,3.723,3.7259,3.7284,3.7277,3.7311,3.736,3.7388,3.7442,3.7487,3.7525,3.7536,3.7512,3.7509,3.7525,3.7531,3.7533,3.7534,3.7334,3.7504,3.7503,3.7502,3.7501,3.7501,3.7186,3.7229,3.7257,3.7305,3.7327,3.7356,3.7396,3.7405,3.7446,3.7492,3.7483,3.7538,3.7562,3.7611,3.7627,3.7669,3.7645,3.7667,3.7673,3.7679,3.7687,3.7526,3.7676,3.7675,3.7675,3.7674,3.7674,0,3.7332,3.7349,3.7394,3.7438,3.7476,3.7453,3.7485,3.7517,3.7568,3.7593,3.763,3.7687,3.7731,3.7741,3.7783,3.7816,3.7806,3.7827,3.7825,3.7828,3.7705,3.7688,3.7835,3.7835,3.7835,3.7835,3.7834,3.7834,3.7412,3.7485,3.7488,3.7571,3.7587,3.7644,3.7664,3.7691,3.7711,3.7778,3.7816,3.7823,3.7842,3.7886,3.7925,3.7927,3.7944,3.797,3.7967,3.7852,3.7836,3.7821,3.7805,3.7974,3.7974,3.8087,3.8088,3.8088]},{"header":{"parameterUnit":"m.s-1","parameterCategory":1,"la1":30.2991,"la2":30.254,"lo1":-89.0895,"lo2":-89.0444,"dy":0.0017,"dx":0.0017,"nx":28,"ny":28,"refTime":"2025-04-07T09:00:00:Z","depth":0,"parameterNumber":3,"parameterNumberName":"V-component_of_WINDS"},"data":[0,0,0,0,0,0,0,0,0,0,0,0,0,0,0,0,0,0,0,0,0,0,0,0,0,0,0,0,0,0,0,0,0,0,0,0,0,0,0,0,0,0,0,0,0,0,0,0,0,0,0,0,0,0,0,0,0,0,-5.845,-5.8454,0,-5.8777,-5.8781,-5.8785,-5.8786,-5.8781,-5.8777,-5.8773,-5.911,-5.9122,-5.9135,0,0,0,0,0,0,0,0,0,0,0,0,0,-5.783,-5.7841,-5.845,-5.8454,-5.8458,-5.8777,-5.8781,-5.8786,-5.8786,-5.8781,-5.8776,-5.8771,-5.9106,-5.9121,-5.9136,0,0,0,0,0,0,0,0,0,0,0,0,0,-5.8122,-5.7845,-5.8449,-5.8497,-5.8504,-5.8776,-5.8781,-5.8787,-5.8787,-5.8781,-5.8775,-5.8769,-5.9101,-5.9119,-5.9138,-5.9384,0,0,-5.9198,-5.9206,0,0,0,0,0,0,0,0,-5.8106,-5.8145,-5.8486,-5.8494,-5.8503,-5.8734,-5.8686,-5.8987,-5.8789,-5.868,-5.8773,-5.8766,-5.899,-5.9018,-5.9093,-5.94,-5.9415,-5.9199,-5.9211,-5.9219,-5.9225,0,0,0,0,0,0,0,-5.8085,-5.8131,-5.8579,-5.8491,-5.8501,-5.8503,-5.8538,-5.8743,-5.8867,-5.8689,-5.869,-5.8729,-5.8994,-5.9075,-5.9101,-5.942,-5.9199,-5.9216,-5.9228,-5.9235,-5.9949,-5.9956,0,0,0,0,0,0,-5.8055,-5.8114,-5.8569,-5.8589,-5.8285,-5.8519,-5.8558,-5.8666,-5.8864,-5.8888,-5.8734,-5.8727,-5.9045,-5.9079,-5.9113,-5.9418,-5.9219,-5.9237,-5.9248,-5.9942,-5.9951,-5.9959,0,0,0,0,0,0,-5.8042,-5.8096,-5.8556,-5.8352,-5.8411,-5.8537,-5.8658,-5.8676,-5.8757,-5.8898,-5.892,-5.8794,-5.9041,-5.9086,-5.9318,-5.943,-5.9246,-5.9264,-5.9933,-5.9945,-5.9955,-6.0028,0,0,0,0,0,0,-5.8024,-5.8091,-5.8185,-5.8354,-5.8422,-5.8755,-5.8665,-5.8687,-5.8791,-5.8786,-5.896,-5.8983,-5.904,-5.9289,-5.9337,-5.9453,-5.9279,-5.9924,-5.9938,-5.9951,-6.0016,-6.004,-6.006,0,0,0,0,0,-5.8002,-5.8192,-5.8189,-5.8244,-5.8542,-5.8761,-5.88,-5.886,-5.8799,-5.8896,-5.8987,-5.8978,-5.9409,-5.9313,-5.9367,-5.949,-5.9917,-5.9934,-5.995,-6.0006,-6.0035,-6.006,0,0,0,0,0,0,-5.8032,-5.8215,-5.8214,-5.8464,-5.8597,-5.8761,-5.8884,-5.8888,-5.9042,-5.9031,-5.9099,-5.9139,-5.9372,-5.9453,-5.9343,-5.9741,-5.9656,-5.9684,-5.968,-5.9709,-5.973,-5.9708,-5.9295,0,0,0,0,0,-5.8068,-5.823,-5.838,-5.8587,-5.8653,-5.8757,-5.8855,-5.889,-5.9031,-5.9087,-5.9195,-5.9332,-5.9499,-5.9607,-5.9768,-6.0026,-6.0067,-6.0138,-6.016,-6.0178,-6.0203,-6.035,-6.0385,-6.0013,-6.0013,-6.0013,0,0,-5.8144,-5.8263,-5.8361,-5.8596,-5.8703,-5.8871,-5.8805,-5.8984,-5.9111,-5.9115,-5.9342,-5.9425,-5.9583,-5.9831,-5.9945,-5.9906,-6.0314,-6.0199,-6.0212,-6.0228,-6.037,-6.0406,-6.0437,-6.0025,-6.0023,-6.0021,0,0,-5.8369,-5.8474,-5.8659,-5.8768,-5.8931,-5.8999,-5.9043,-5.9207,-5.9264,-5.9492,-5.95,-5.965,-5.9935,-6.0049,-6.0144,-6.0414,-6.0413,-6.0464,-6.0581,-6.0724,-6.0753,-6.078,-6.088,-6.0915,-6.0487,-6.0487,-6.0488,0,-5.8443,-5.8696,-5.8754,-5.8936,-5.9041,-5.9051,-5.9241,-5.9344,-5.9551,-5.9624,-5.9577,-5.9937,-6.0044,-6.032,-6.0386,-6.0461,-6.0517,-6.0446,-6.0744,-6.0771,-6.0797,-6.0894,-6.0931,-6.0493,-6.0492,-6.0492,-6.0491,0,-5.8781,-5.8956,-5.9086,-5.9288,-5.9406,-5.9591,-5.9679,-5.9792,-5.9817,-5.9891,-6.0125,-6.0253,-6.0443,-6.051,-6.0535,-6.0791,-6.0763,-6.0729,-6.0646,-6.0837,-6.0929,-6.0966,-6.0501,-6.0499,-6.0497,-6.0496,0,0,-5.9037,-5.9268,-5.9315,-5.9408,-5.9589,-5.9727,-5.9912,-6.0097,-6.0195,-6.0337,-6.0498,-6.0739,-6.071,-6.0818,-6.0856,-6.0981,-6.1192,-6.0933,-6.0938,-6.0981,-6.1487,-6.1515,-6.1557,-6.1191,-6.1198,-6.1204,-6.1476,0,-5.9284,-5.9615,-5.9674,-5.9964,-6.0129,-6.0142,-6.0304,-6.0434,-6.0508,-6.0659,-6.074,-6.0913,-6.0859,-6.0925,-6.1048,-6.114,-6.1296,-6.1121,-6.1344,-6.1351,-6.1309,-6.1604,-6.1634,-6.1884,-6.1512,-6.1518,-6.1522,0,-5.9618,-5.9771,-6.0077,-6.0239,-6.031,-6.0455,-6.0632,-6.0775,-6.0923,-6.0968,-6.109,-6.1114,-6.131,-6.1215,-6.1488,-6.1368,-6.1462,-6.1521,-6.1532,-6.1559,-6.1451,-6.1644,-6.1965,-6.2004,-6.1579,-6.1574,-6.157,0,-5.978,-6.0061,-6.0282,-6.036,-6.0553,-6.0656,-6.0741,-6.0883,-6.0991,-6.1145,-6.1216,-6.139,-6.1487,-6.1622,-6.1694,-6.1616,-6.1963,-6.1873,-6.2009,-6.2008,-6.2085,-6.208,-6.2431,-6.2138,-6.2137,-6.2137,-6.2136,0,-6.0054,-6.0242,-6.0358,-6.0494,-6.0706,-6.0772,-6.098,-6.1064,-6.119,-6.1345,-6.1364,-6.1509,-6.1593,-6.175,-6.1807,-6.2028,-6.2069,-6.2114,-6.2128,-6.2115,-6.211,-6.2181,-6.2168,-6.2147,-6.2145,-6.2143,-6.2141,0,-6.0272,-6.0356,-6.0599,-6.0762,-6.0807,-6.0957,-6.1097,-6.1231,-6.1304,-6.1499,-6.1549,-6.1664,-6.1851,-6.1935,-6.2164,-6.2203,-6.2456,-6.2455,-6.2406,-6.2413,-6.2546,-6.2535,-6.2959,-6.302,-6.2682,-6.2685,-6.2687,0,-6.0443,-6.0589,-6.0768,-6.0872,-6.0961,-6.1129,-6.124,-6.131,-6.1425,-6.1606,-6.1719,-6.1906,-6.206,-6.2358,-6.2464,-6.264,-6.2647,-6.2783,-6.2674,-6.2658,-6.2655,-6.2648,-6.2665,-6.2805,-6.2808,-6.2811,-6.2813,0,-6.074,-6.0775,-6.0934,-6.111,-6.1242,-6.1383,-6.1521,-6.1605,-6.1698,-6.1826,-6.2018,-6.2137,-6.2373,-6.256,-6.2744,-6.2833,-6.2841,-6.2846,-6.2888,-6.2879,-6.2847,-6.2871,-6.2466,-6.2837,-6.2834,-6.2833,-6.2831,-6.283,-6.0944,-6.1076,-6.1223,-6.14,-6.1512,-6.1641,-6.1776,-6.1866,-6.2027,-6.2224,-6.2255,-6.2461,-6.2607,-6.2855,-6.2951,-6.3114,-6.3082,-6.3141,-6.3157,-6.3172,-6.3183,-6.2817,-6.3147,-6.3146,-6.3146,-6.3145,-6.3145,0,-6.1247,-6.1342,-6.1504,-6.1698,-6.1838,-6.183,-6.1984,-6.2102,-6.2282,-6.2418,-6.2569,-6.2791,-6.2973,-6.3092,-6.3277,-6.3385,-6.3393,-6.3431,-6.3427,-6.3448,-6.3198,-6.3146,-6.3422,-6.3422,-6.3422,-6.3421,-6.3421,-6.3421,-6.1421,-6.1644,-6.1697,-6.1977,-6.2071,-6.2272,-6.2361,-6.2481,-6.2591,-6.2837,-6.2988,-6.3064,-6.3195,-6.339,-6.3557,-6.3588,-6.3657,-6.3698,-6.3728,-6.3494,-6.3465,-6.3438,-6.3389,-6.3711,-6.3711,-6.3965,-6.3967,-6.3969]}]]